Tracking 31027 objects as of 19-Jul-2025
HD Live streaming from Space Station
objects crossing your sky now

SL-12 R/B(2)

Track SL-12 R/B(2) now!


NORAD ID: 26557
Int'l Code: 2000-059D
Perigee: 7,215.2 km
Apogee: 35,774.3 km
Inclination: 14.6 °
Period: 771.6 minutes
Semi major axis: 27865 km
RCS: 24.2849 m2 (large)
Launch date: October 1, 2000
Source: Commonwealth of Independent States (former USSR) (CIS)
Launch site: TYURATAM MISSILE AND SPACE COMPLEX (TTMTR)

Note: This is a ROCKET BODY
Your satellite tracking list
STARLINK-31879
Track 1 satellite(s)




NASA's NSSDC Master Catalog

Two Line Element Set (TLE):
1 26557U 00059D   25199.42336405 -.00000132  00000-0  00000-0 0  9999
2 26557  14.6464 110.5108 5124419   2.3017 188.3058  1.86636960169034
Source of the keplerian elements: AFSPC